{"data":{"norad_id":39269,"intl_designator":"2013-055E","name":"POPACS 2","alt_names":[],"object_type":"PAYLOAD","status":"ACTIVE","operator":null,"country":"US","launch_date":"2013-09-29","launch_site_code":"AFWTR","launch_vehicle":null,"mission":null,"orbit_class":"UNKNOWN","rcs_meters":0.0185,"size_class":null,"mass_kg":null,"dimensions":null,"purposes":["tech_demo"],"wikipedia_slug":null,"has_3d_model":false,"image_url":null,"decayed_at":null,"tle_current":{"epoch":"2026-05-24T11:38:28.313088Z","epoch_age_seconds":126351,"freshness":"FRESH","line1":"1 39269U 13055E   26144.48504992  .00010218  00000+0  17559-3 0  9992","line2":"2 39269  80.9914 171.3152 0418106 270.0286  85.3033 14.90631761659681","mean_motion":14.90631761,"eccentricity":0.0418106,"inclination_deg":80.9914,"raan_deg":171.3152,"arg_perigee_deg":270.0286,"mean_anomaly_deg":85.3033,"bstar":0.00017559,"rev_number":65968,"period_min":96.60333542296,"perigee_km":304.37308910717,"apogee_km":887.55582173106,"semimajor_km":6974.1014554191,"source":"CELESTRAK","updated_at":"2026-05-25T13:38:25.492373Z"}}}